WESTFORD NEEDLES, 2361

Orbit data source: Space-Track

WESTFORD NEEDLES, 2361 is space debris in LEO originally from a launch on Thu, 09 May 1963 UTC launched from the Air Force Western Test Range (AFWTR). Debris objects in space refer to the collection of defunct objects orbiting the Earth. Examples of debris include non-operational satellites, rocket bodies, and fragments generated from explosions, collisions, or faulty payload assembly.

Loading next visibility...
Identifier
2361, 1963-014L
Orbit
LEO
Country
Flag of USUS
Related business
Manufacturer
Unknown
Mission
Spacecraft
Bus & Motor
Unknown
Mass
Unknown
Launch date (UTC)
1963-05-09 (63 years ago)
Launch vehicle
Unknown
Launch site
Air Force Western Test Range (AFWTR)
Object type
Payload
Rocket body
Debris
Shape & HBR
Unknown shape, 0.5 m
Radar Cross Section
Medium (>0.1 m² and <1 m²)

Expand to show TLE details & history
Last TLE update: 13 hours ago

TLE from 13 hours ago
0 WESTFORD NEEDLES
1 02361U 63014L   26072.28226206 -.00000252  00000-0 -11732+0 0  9995
2 02361  87.3828 189.7566 0135104  20.0348 340.5745  8.66273438986708
Epoch: 2026-03-13T06:46Z
TLE epoch observation values (Epoch: 2026-03-13T06:46:27.441Z)
Latitude
0.00001°
Longitude
-82.77777°
Altitude
3,511.204 km
Speed
6.39 km/s
True Right ascension
12h 39m 01s
True Declination
0° 00' 00"
Sunlit
Object was in full shadow at epoch
Visualization orbit readout
Latitude
Unknown
Longitude
Unknown
Altitude
Unknown
Speed
Unknown
Apparent Right ascension
Unknown
Apparent Declination
Unknown
Sunlit
N/A
Visualization observer readout
Local Sidereal Time
00:24:58
Azimuth
Unknown
Elevation
Unknown
Doppler factor
Unknown
Orbital elements
Apogee altitude
3,769.514 km
Perigee altitude
3,498.972 km
Semi-major axis
10,012.38 km
Eccentricity
0.01351
Inclination
87.3828°
RAAN
189.7566°
Arg. of periapsis
20.0348°
True anomaly
340.05129°
Mean anomaly
340.5745°
Eccentric anomaly
340.31373°
Mean motion
2.16639 °/min
Orbital period
166.17 mins
BSTAR
-0.11732
Loading maneuver chart data...
Computing Atmospheric mass density...

Documentation

Showing up to 5 results
|